Weather History for KMCB - August, 2012

Change the Weather History Date:

Sunday, August 19, 2012

  Actual Average Record
Temperature  
Mean Temperature 75 °F -  
Max Temperature 79 °F 92 °F 103 °F (1990)
Min Temperature 71 °F 70 °F 63 °F (1976)
Cooling Degree Days 10    
Growing Degree Days 25 (Base 50)    
Moisture  
Dew Point 72 °F    
Average Humidity 95    
Maximum Humidity 100    
Minimum Humidity 74    
Precipitation  
Precipitation 0.01 in - - ()
Sea Level Pressure  
Sea Level Pressure 29.90 in    
Wind  
Wind Speed 3 mph (SW)    
Max Wind Speed 7 mph    
Max Gust Speed -    
Visibility 8 miles    
Events Rain    
Averages and records for this station are not official NWS values.
T = Trace of Precipitation, MM = Missing Value Source: NWS Daily Summary

Daily Weather History Graph

Daily Weather History Graph

Search for Another Location

Airport or City:

Trip Planner

Search our weather history database for the weather conditions in past years. The results will help you decide how hot, cold, wet, or windy it might be!

Date:

Astronomy

Aug. 19, 2012 Rise Set
Actual Time 6:30 AM CDT 7:39 PM CDT
Civil Twilight 6:05 AM CDT 8:05 PM CDT
Nautical Twilight 5:35 AM CDT 8:34 PM CDT
Astronomical Twilight 5:04 AM CDT 9:05 PM CDT
Moon 8:31 AM CDT (8/19) 8:44 PM CDT (8/19)
Length of Visible Light 13h 59m
Length of Day
13h 09m
Waxing Crescent, 5% of the Moon is Illuminated
Aug 19
Waxing Crescent
Aug 24
First Quarter
Aug 31
Full
Sep 8
Last Quarter
Sep 15
New

Hourly Weather History & Observations

Time (CDT) Temp. Dew Point Humidity Pressure Visibility Wind Dir Wind Speed Gust Speed Precip Events Conditions
12:15 AM 71.6 °F 71.6 °F 100% 29.88 in 9.0 mi WSW 4.6 mph - 0.01 in Rain Light Rain
12:33 AM 71.6 °F 71.6 °F 100% 29.86 in 10.0 mi Calm Calm - 0.01 in Rain Light Rain
12:43 AM 71.6 °F 71.6 °F 100% 29.87 in 10.0 mi NNW 4.6 mph - 0.01 in   Mostly Cloudy
12:53 AM 72.0 °F 71.1 °F 97% 29.85 in 9.0 mi North 3.5 mph - 0.01 in   Mostly Cloudy
1:53 AM 72.0 °F 71.1 °F 97% 29.84 in 9.0 mi North 3.5 mph - N/A   Mostly Cloudy
2:53 AM 72.0 °F 71.1 °F 97% 29.86 in 7.0 mi Calm Calm - N/A   Overcast
3:53 AM 71.1 °F 71.1 °F 100% 29.89 in 6.0 mi Calm Calm - N/A   Overcast
4:04 AM 71.6 °F 71.6 °F 100% 29.91 in 6.0 mi Calm Calm - N/A   Overcast
4:13 AM 71.6 °F 71.6 °F 100% 29.91 in 6.0 mi Calm Calm - N/A   Overcast
4:29 AM 71.6 °F 71.6 °F 100% 29.92 in 6.0 mi South 3.5 mph - N/A   Overcast
4:53 AM 71.1 °F 71.1 °F 100% 29.91 in 7.0 mi South 4.6 mph - N/A   Overcast
5:15 AM 71.6 °F 71.6 °F 100% 29.94 in 6.0 mi South 3.5 mph - N/A   Overcast
5:53 AM 71.1 °F 71.1 °F 100% 29.92 in 6.0 mi Calm Calm - N/A   Overcast
6:03 AM 71.6 °F 71.6 °F 100% 29.93 in 6.0 mi Calm Calm - N/A   Overcast
6:53 AM 71.1 °F 71.1 °F 100% 29.91 in 5.0 mi Calm Calm - N/A   Partly Cloudy
7:09 AM 71.6 °F 71.6 °F 100% 29.92 in 4.0 mi Calm Calm - N/A   Scattered Clouds
7:49 AM 71.6 °F 71.6 °F 100% 29.92 in 3.0 mi Calm Calm - N/A   Mostly Cloudy
7:53 AM 71.1 °F 71.1 °F 100% 29.91 in 2.5 mi Calm Calm - N/A   Mostly Cloudy
8:00 AM 71.6 °F 71.6 °F 100% 29.92 in 3.0 mi Calm Calm - N/A   Mostly Cloudy
8:53 AM 73.9 °F 72.0 °F 93% 29.91 in 8.0 mi Calm Calm - N/A   Mostly Cloudy
9:22 AM 75.2 °F 71.6 °F 89% 29.94 in 10.0 mi SSW 3.5 mph - N/A   Scattered Clouds
9:53 AM 75.9 °F 71.1 °F 85% 29.93 in 10.0 mi WSW 4.6 mph - N/A   Clear
10:53 AM 75.9 °F 72.0 °F 87% 29.93 in 10.0 mi West 3.5 mph - N/A   Overcast
11:14 AM 78.8 °F 71.6 °F 78% 29.93 in 10.0 mi Variable 3.5 mph - N/A   Scattered Clouds
11:53 AM 79.0 °F 71.1 °F 77% 29.93 in 10.0 mi Calm Calm - N/A   Scattered Clouds
12:01 PM 78.8 °F 69.8 °F 74% 29.95 in 10.0 mi NW 4.6 mph - N/A   Mostly Cloudy
12:53 PM 78.1 °F 72.0 °F 81% 29.94 in 10.0 mi SW 4.6 mph - N/A   Mostly Cloudy
1:42 PM 77.0 °F 71.6 °F 83% 29.94 in 10.0 mi SW 4.6 mph - N/A   Mostly Cloudy
1:53 PM 77.0 °F 72.0 °F 84% 29.93 in 10.0 mi WSW 5.8 mph - N/A   Mostly Cloudy
2:53 PM 73.9 °F 71.1 °F 91% 29.90 in 10.0 mi SW 4.6 mph - N/A   Clear
3:53 PM 73.9 °F 71.1 °F 91% 29.89 in 10.0 mi SSW 3.5 mph - N/A   Partly Cloudy
4:53 PM 73.9 °F 72.0 °F 93% 29.89 in 10.0 mi South 4.6 mph - N/A   Clear
5:53 PM 75.0 °F 73.0 °F 94% 29.87 in 10.0 mi South 6.9 mph - N/A   Mostly Cloudy
6:01 PM 75.2 °F 73.4 °F 94% 29.88 in 10.0 mi SSW 5.8 mph - N/A   Scattered Clouds
6:23 PM 75.2 °F 73.4 °F 94% 29.88 in 10.0 mi South 3.5 mph - N/A   Mostly Cloudy
6:49 PM 75.2 °F 73.4 °F 94% 29.88 in 10.0 mi SSW 4.6 mph - N/A   Partly Cloudy
6:53 PM 75.0 °F 73.0 °F 94% 29.87 in 10.0 mi SSW 4.6 mph - N/A   Partly Cloudy
7:38 PM 73.4 °F 73.4 °F 100% 29.89 in 10.0 mi SSW 4.6 mph - N/A   Partly Cloudy
7:53 PM 73.9 °F 73.0 °F 97% 29.88 in 9.0 mi South 3.5 mph - N/A   Partly Cloudy
8:36 PM 73.4 °F 73.4 °F 100% 29.90 in 10.0 mi South 4.6 mph - N/A   Scattered Clouds
8:53 PM 73.0 °F 73.0 °F 100% 29.89 in 9.0 mi SSW 3.5 mph - N/A   Scattered Clouds
9:21 PM 73.4 °F 73.4 °F 100% 29.91 in 8.0 mi Calm Calm - N/A   Mostly Cloudy
9:53 PM 72.0 °F 72.0 °F 100% 29.89 in 7.0 mi Calm Calm - N/A   Mostly Cloudy
10:05 PM 71.6 °F 71.6 °F 100% 29.91 in 7.0 mi Calm Calm - N/A   Mostly Cloudy
10:19 PM 71.6 °F 71.6 °F 100% 29.91 in 7.0 mi Calm Calm - N/A   Mostly Cloudy
10:35 PM 71.6 °F 71.6 °F 100% 29.91 in 7.0 mi Calm Calm - N/A   Partly Cloudy
10:53 PM 72.0 °F 72.0 °F 100% 29.90 in 7.0 mi Calm Calm - N/A   Clear
11:53 PM 71.1 °F 71.1 °F 100% 29.91 in 5.0 mi Calm Calm - N/A   Scattered Clouds